Location: Township of Marena
(38.1747°N, 99.6798°W)
Time: 10:29:57
(UTC+00:00)

Cosmos 1939 Rocket - Pass Details

Date: 26 October 2020
Orbit: 532 x 584 km, 97.4° (Epoch: 24 November)

Event Time Altitude Azimuth Distance (km) Brightness Sun altitude
Rises 00:58:07 0° 171° (S) 2,747 6.3 -14.6°
Reaches altitude 10° 01:00:16 10° 173° (S) 1,847 5.5 -15.0°
Maximum altitude 01:04:16 73° 258° (WSW) 584 3.0 -15.8°
Drops below altitude 10° 01:08:13 10° 344° (NNW) 1,829 5.6 -16.6°
Sets 01:10:20 0° 347° (NNW) 2,719 6.5 -17.0°
